| time (UTC) | temp F | wind direction | speed MPH | gust MPH | rain 1hr in | rain 24hr in | rain mn in | humidity % | barometer mb |
| 20260904193609 | 79 | 320 | 0.0 | 0.0 | 0.00 | 0.00 | 0.00 | 68 | 1018.8 |
| 20260904193048 | 79 | 320 | 0.0 | 0.0 | 0.00 | 0.00 | 0.00 | 67 | 1018.8 |
| 20260904192611 | 79 | 320 | 0.0 | 0.0 | 0.00 | 0.00 | 0.00 | 67 | 1018.7 |
| 20260904192038 | 79 | 320 | 0.0 | 0.0 | 0.00 | 0.00 | 0.00 | 67 | 1018.7 |
| 20260904191540 | 79 | 320 | 0.0 | 0.0 | 0.00 | 0.00 | 0.00 | 67 | 1018.7 |
| 20260904191048 | 80 | 320 | 0.0 | 0.0 | 0.00 | 0.00 | 0.00 | 66 | 1018.5 |
| 20260904190545 | 80 | 320 | 0.0 | 0.0 | 0.00 | 0.00 | 0.00 | 66 | 1018.6 |
| 20260904190057 | 80 | 320 | 0.0 | 0.0 | 0.00 | 0.00 | 0.00 | 66 | 1018.5 |
| 20260904185534 | 80 | 320 | 0.0 | 0.0 | 0.00 | 0.00 | 0.00 | 65 | 1018.4 |
| 20260904185041 | 80 | 320 | 0.0 | 0.0 | 0.00 | 0.00 | 0.00 | 64 | 1018.3 |
| 20260904184602 | 81 | 320 | 0.0 | 0.0 | 0.00 | 0.00 | 0.00 | 64 | 1018.3 |
| 20260904184101 | 81 | 320 | 0.0 | 0.0 | 0.00 | 0.00 | 0.00 | 64 | 1018.2 |
| 20260904183536 | 81 | 320 | 0.0 | 0.0 | 0.00 | 0.00 | 0.00 | 64 | 1018.1 |
| 20260904183045 | 81 | 320 | 0.0 | 0.0 | 0.00 | 0.00 | 0.00 | 64 | 1018.1 |
| 20260904182547 | 82 | 320 | 0.0 | 0.0 | 0.00 | 0.00 | 0.00 | 64 | 1018.1 |
| 20260904182102 | 82 | 320 | 0.0 | 0.0 | 0.00 | 0.00 | 0.00 | 63 | 1018.0 |
| 20260904181602 | 82 | 320 | 0.0 | 0.0 | 0.00 | 0.00 | 0.00 | 62 | 1018.0 |
| 20260904181033 | 83 | 320 | 0.0 | 0.0 | 0.00 | 0.00 | 0.00 | 61 | 1017.9 |
| 20260904180556 | 83 | 320 | 0.0 | 0.0 | 0.00 | 0.00 | 0.00 | 61 | 1017.9 |
| 20260904180047 | 83 | 320 | 0.0 | 0.0 | 0.00 | 0.00 | 0.00 | 60 | 1017.9 |
| 20260904175549 | 83 | 320 | 0.0 | 0.0 | 0.00 | 0.00 | 0.00 | 60 | 1017.9 |
| 20260904175036 | 83 | 319 | 0.0 | 0.0 | 0.00 | 0.00 | 0.00 | 60 | 1017.9 |
| 20260904174538 | 84 | 319 | 0.0 | 0.0 | 0.00 | 0.00 | 0.00 | 61 | 1017.9 |
| 20260904174038 | 84 | 319 | 0.0 | 0.0 | 0.00 | 0.00 | 0.00 | 60 | 1017.9 |
| 20260904173542 | 84 | 319 | 0.0 | 0.0 | 0.00 | 0.00 | 0.00 | 59 | 1017.8 |
| 20260904173102 | 84 | 319 | 0.0 | 0.0 | 0.00 | 0.00 | 0.00 | 58 | 1017.8 |
| 20260904172542 | 85 | 319 | 0.0 | 0.0 | 0.00 | 0.00 | 0.00 | 57 | 1017.9 |
| 20260904172053 | 85 | 334 | 0.0 | 0.0 | 0.00 | 0.00 | 0.00 | 56 | 1017.9 |
| 20260904171536 | 85 | 335 | 0.0 | 0.0 | 0.00 | 0.00 | 0.00 | 54 | 1017.9 |
| 20260904171045 | 86 | 335 | 0.0 | 0.0 | 0.00 | 0.00 | 0.00 | 54 | 1018.0 |
| 20260904170547 | 86 | 335 | 0.0 | 0.0 | 0.00 | 0.00 | 0.00 | 52 | 1018.0 |
| 20260904170105 | 87 | 335 | 0.0 | 0.0 | 0.00 | 0.00 | 0.00 | 52 | 1017.9 |
| 20260904165543 | 87 | 335 | 0.0 | 0.0 | 0.00 | 0.00 | 0.00 | 52 | 1018.0 |
| 20260904165101 | 88 | 335 | 0.0 | 0.0 | 0.00 | 0.00 | 0.00 | 51 | 1018.0 |
| 20260904164543 | 88 | 334 | 0.0 | 0.0 | 0.00 | 0.00 | 0.00 | 50 | 1018.0 |
| 20260904164055 | 89 | 334 | 0.0 | 1.0 | 0.00 | 0.00 | 0.00 | 50 | 1018.0 |
| 20260904163537 | 90 | 335 | 0.0 | 1.0 | 0.00 | 0.00 | 0.00 | 49 | 1018.0 |
| 20260904163042 | 91 | 141 | 0.0 | 0.0 | 0.00 | 0.00 | 0.00 | 47 | 1018.0 |
| 20260904162544 | 92 | 141 | 0.0 | 0.0 | 0.00 | 0.00 | 0.00 | 47 | 1018.0 |
| 20260904162034 | 91 | 141 | 0.0 | 0.0 | 0.00 | 0.00 | 0.00 | 46 | 1018.1 |
| 20260904161535 | 91 | 141 | 0.0 | 0.0 | 0.00 | 0.00 | 0.00 | 45 | 1018.1 |
| 20260904161046 | 91 | 141 | 0.0 | 0.0 | 0.00 | 0.00 | 0.00 | 45 | 1018.1 |
| 20260904160550 | 91 | 141 | 0.0 | 0.0 | 0.00 | 0.00 | 0.00 | 45 | 1018.1 |
| 20260904160040 | 91 | 141 | 0.0 | 0.0 | 0.00 | 0.00 | 0.00 | 45 | 1018.1 |
| 20260904155542 | 91 | 141 | 0.0 | 0.0 | 0.00 | 0.00 | 0.00 | 45 | 1018.2 |
| 20260904155100 | 90 | 141 | 0.0 | 0.0 | 0.00 | 0.00 | 0.00 | 46 | 1018.2 |
| 20260904154534 | 90 | 141 | 0.0 | 0.0 | 0.00 | 0.00 | 0.00 | 46 | 1018.2 |
| 20260904154042 | 89 | 141 | 0.0 | 2.0 | 0.00 | 0.00 | 0.00 | 48 | 1018.3 |
| 20260904153606 | 89 | 141 | 0.0 | 4.0 | 0.00 | 0.00 | 0.00 | 47 | 1018.4 |
| 20260904153058 | 90 | 141 | 1.0 | 4.0 | 0.00 | 0.00 | 0.00 | 47 | 1018.4 |
| 20260904152533 | 90 | 156 | 0.0 | 0.0 | 0.00 | 0.00 | 0.00 | 46 | 1018.5 |
| 20260904152040 | 90 | 156 | 0.0 | 2.0 | 0.00 | 0.00 | 0.00 | 47 | 1018.5 |
| 20260904151544 | 90 | 156 | 0.0 | 7.0 | 0.00 | 0.00 | 0.00 | 46 | 1018.5 |
| 20260904151047 | 90 | 74 | 0.0 | 7.0 | 0.00 | 0.00 | 0.00 | 46 | 1018.6 |
| 20260904150608 | 90 | 106 | 0.0 | 7.0 | 0.00 | 0.00 | 0.00 | 46 | 1018.6 |
| 20260904150106 | 91 | 153 | 3.0 | 7.0 | 0.00 | 0.00 | 0.00 | 45 | 1018.6 |
| 20260904145547 | 91 | 147 | 0.0 | 0.0 | 0.00 | 0.00 | 0.00 | 45 | 1018.6 |
| 20260904145037 | 90 | 111 | 0.0 | 0.0 | 0.00 | 0.00 | 0.00 | 48 | 1018.7 |
| 20260904144533 | 90 | 111 | 0.0 | 5.0 | 0.00 | 0.00 | 0.00 | 46 | 1018.7 |
| 20260904144042 | 90 | 122 | 0.0 | 5.0 | 0.00 | 0.00 | 0.00 | 46 | 1018.6 |
| 20260904143544 | 90 | 87 | 0.0 | 7.0 | 0.00 | 0.00 | 0.00 | 47 | 1018.6 |
| 20260904143034 | 90 | 118 | 1.0 | 7.0 | 0.00 | 0.00 | 0.00 | 47 | 1018.7 |
| 20260904142538 | 89 | 99 | 0.0 | 1.0 | 0.00 | 0.00 | 0.00 | 48 | 1018.7 |
| 20260904142047 | 89 | 148 | 0.0 | 8.0 | 0.00 | 0.00 | 0.00 | 49 | 1018.8 |
| 20260904141549 | 89 | 129 | 2.0 | 9.0 | 0.00 | 0.00 | 0.00 | 47 | 1018.8 |
| 20260904141037 | 90 | 135 | 1.0 | 7.0 | 0.00 | 0.00 | 0.00 | 48 | 1018.8 |
| 20260904140540 | 90 | 93 | 0.0 | 7.0 | 0.00 | 0.00 | 0.00 | 47 | 1018.9 |
| 20260904140042 | 89 | 167 | 3.0 | 9.0 | 0.00 | 0.00 | 0.00 | 49 | 1018.9 |
| 20260904135605 | 90 | 133 | 4.0 | 9.0 | 0.00 | 0.00 | 0.00 | 47 | 1018.9 |
| 20260904135034 | 90 | 112 | 0.0 | 5.0 | 0.00 | 0.00 | 0.00 | 47 | 1018.8 |
| 20260904134534 | 90 | 169 | 0.0 | 7.0 | 0.00 | 0.00 | 0.00 | 47 | 1018.9 |
| 20260904134041 | 90 | 147 | 1.0 | 7.0 | 0.00 | 0.00 | 0.00 | 48 | 1019.0 |
| 20260904133602 | 90 | 116 | 0.0 | 3.0 | 0.00 | 0.00 | 0.00 | 48 | 1019.0 |
| 20260904133049 | 89 | 154 | 0.0 | 6.0 | 0.00 | 0.00 | 0.00 | 48 | 1019.1 |
| 20260904132553 | 89 | 153 | 0.0 | 11.0 | 0.00 | 0.00 | 0.00 | 47 | 1019.1 |
| 20260904132038 | 89 | 141 | 7.0 | 11.0 | 0.00 | 0.00 | 0.00 | 46 | 1019.1 |
| 20260904131558 | 90 | 119 | 1.0 | 9.0 | 0.00 | 0.00 | 0.00 | 47 | 1019.2 |
| 20260904131045 | 89 | 143 | 3.0 | 9.0 | 0.00 | 0.00 | 0.00 | 47 | 1019.2 |
| 20260904130546 | 89 | 172 | 0.0 | 11.0 | 0.00 | 0.00 | 0.00 | 47 | 1019.2 |
| 20260904130038 | 89 | 170 | 5.0 | 11.0 | 0.00 | 0.00 | 0.00 | 46 | 1019.3 |
| 20260904125535 | 89 | 144 | 4.0 | 8.0 | 0.00 | 0.00 | 0.00 | 47 | 1019.3 |
| 20260904125042 | 89 | 143 | 2.0 | 8.0 | 0.00 | 0.00 | 0.00 | 47 | 1019.4 |
| 20260904124545 | 89 | 142 | 1.0 | 10.0 | 0.00 | 0.00 | 0.00 | 45 | 1019.4 |
| 20260904124102 | 89 | 145 | 1.0 | 11.0 | 0.00 | 0.00 | 0.00 | 47 | 1019.5 |
| 20260904123543 | 89 | 157 | 2.0 | 8.0 | 0.00 | 0.00 | 0.00 | 46 | 1019.5 |
| 20260904123034 | 89 | 183 | 3.0 | 8.0 | 0.00 | 0.00 | 0.00 | 47 | 1019.5 |
| 20260904122537 | 89 | 139 | 0.0 | 9.0 | 0.00 | 0.00 | 0.00 | 46 | 1019.5 |
| 20260904122044 | 89 | 112 | 0.0 | 9.0 | 0.00 | 0.00 | 0.00 | 48 | 1019.6 |
| 20260904121607 | 89 | 100 | 0.0 | 5.0 | 0.00 | 0.00 | 0.00 | 48 | 1019.7 |
| 20260904121059 | 89 | 114 | 0.0 | 5.0 | 0.00 | 0.00 | 0.00 | 48 | 1019.7 |
| 20260904120532 | 89 | 75 | 0.0 | 5.0 | 0.00 | 0.00 | 0.00 | 48 | 1019.8 |
| 20260904120044 | 89 | 112 | 0.0 | 3.0 | 0.00 | 0.00 | 0.00 | 48 | 1019.8 |
| 20260904115544 | 89 | 100 | 0.0 | 9.0 | 0.00 | 0.00 | 0.00 | 46 | 1019.9 |
| 20260904115058 | 89 | 56 | 1.0 | 9.0 | 0.00 | 0.00 | 0.00 | 47 | 1019.9 |
| 20260904114540 | 88 | 81 | 0.0 | 5.0 | 0.00 | 0.00 | 0.00 | 49 | 1019.9 |
| 20260904114047 | 88 | 41 | 0.0 | 9.0 | 0.00 | 0.00 | 0.00 | 47 | 1020.0 |
| 20260904113547 | 88 | 147 | 6.0 | 9.0 | 0.00 | 0.00 | 0.00 | 48 | 1020.1 |
| 20260904113059 | 88 | 151 | 1.0 | 5.0 | 0.00 | 0.00 | 0.00 | 50 | 1020.0 |
| 20260904112534 | 87 | 87 | 0.0 | 9.0 | 0.00 | 0.00 | 0.00 | 48 | 1020.1 |
| 20260904112111 | 87 | 130 | 5.0 | 9.0 | 0.00 | 0.00 | 0.00 | 47 | 1020.2 |
| 20260904111546 | 88 | 129 | 5.0 | 9.0 | 0.00 | 0.00 | 0.00 | 47 | 1020.2 |
| 20260904111034 | 88 | 142 | 2.0 | 7.0 | 0.00 | 0.00 | 0.00 | 47 | 1020.2 |
| 20260904110537 | 88 | 166 | 0.0 | 8.0 | 0.00 | 0.00 | 0.00 | 47 | 1020.2 |
| 20260904110045 | 88 | 174 | 5.0 | 8.0 | 0.00 | 0.00 | 0.00 | 48 | 1020.3 |
| 20260904105546 | 88 | 136 | 0.0 | 7.0 | 0.00 | 0.00 | 0.00 | 48 | 1020.3 |
| 20260904105059 | 87 | 68 | 1.0 | 7.0 | 0.00 | 0.00 | 0.00 | 47 | 1020.4 |
| 20260904104534 | 87 | 75 | 0.0 | 6.0 | 0.00 | 0.00 | 0.00 | 47 | 1020.5 |
| 20260904104111 | 87 | 93 | 1.0 | 7.0 | 0.00 | 0.00 | 0.00 | 47 | 1020.4 |
| 20260904103554 | 87 | 118 | 2.0 | 7.0 | 0.00 | 0.00 | 0.00 | 48 | 1020.5 |
| 20260904103045 | 87 | 78 | 0.0 | 6.0 | 0.00 | 0.00 | 0.00 | 47 | 1020.5 |
| 20260904102546 | 86 | 114 | 1.0 | 7.0 | 0.00 | 0.00 | 0.00 | 47 | 1020.6 |
| 20260904102037 | 86 | 145 | 0.0 | 8.0 | 0.00 | 0.00 | 0.00 | 47 | 1020.6 |
| 20260904101603 | 86 | 172 | 0.0 | 7.0 | 0.00 | 0.00 | 0.00 | 47 | 1020.7 |
| 20260904101049 | 86 | 139 | 1.0 | 7.0 | 0.00 | 0.00 | 0.00 | 46 | 1020.8 |
| 20260904100551 | 86 | 127 | 1.0 | 6.0 | 0.00 | 0.00 | 0.00 | 47 | 1020.9 |
| 20260904100040 | 85 | 100 | 1.0 | 7.0 | 0.00 | 0.00 | 0.00 | 47 | 1020.9 |
| 20260904095541 | 85 | 156 | 0.0 | 8.0 | 0.00 | 0.00 | 0.00 | 48 | 1021.0 |
| 20260904095036 | 85 | 142 | 1.0 | 8.0 | 0.00 | 0.00 | 0.00 | 47 | 1021.1 |
| 20260904094538 | 85 | 143 | 0.0 | 6.0 | 0.00 | 0.00 | 0.00 | 47 | 1021.1 |
| 20260904094056 | 85 | 143 | 0.0 | 0.0 | 0.00 | 0.00 | 0.00 | 48 | 1021.1 |
| 20260904093532 | 85 | 143 | 0.0 | 4.0 | 0.00 | 0.00 | 0.00 | 48 | 1021.2 |
| 20260904093051 | 84 | 143 | 0.0 | 5.0 | 0.00 | 0.00 | 0.00 | 49 | 1021.3 |
| 20260904092546 | 84 | 143 | 3.0 | 6.0 | 0.00 | 0.00 | 0.00 | 49 | 1021.4 |
| 20260904092101 | 84 | 145 | 0.0 | 3.0 | 0.00 | 0.00 | 0.00 | 47 | 1021.4 |
| 20260904091541 | 84 | 148 | 0.0 | 0.0 | 0.00 | 0.00 | 0.00 | 48 | 1021.4 |
| 20260904091059 | 83 | 148 | 0.0 | 6.0 | 0.00 | 0.00 | 0.00 | 48 | 1021.4 |
| 20260904090533 | 83 | 149 | 0.0 | 6.0 | 0.00 | 0.00 | 0.00 | 50 | 1021.3 |
| 20260904090046 | 83 | 152 | 2.0 | 6.0 | 0.00 | 0.00 | 0.00 | 51 | 1021.3 |
| 20260904085549 | 82 | 152 | 0.0 | 5.0 | 0.00 | 0.00 | 0.00 | 52 | 1021.3 |
| 20260904085108 | 82 | 152 | 0.0 | 0.0 | 0.00 | 0.00 | 0.00 | 53 | 1021.3 |
| 20260904084548 | 82 | 152 | 0.0 | 0.0 | 0.00 | 0.00 | 0.00 | 53 | 1021.4 |
| 20260904084032 | 81 | 152 | 0.0 | 0.0 | 0.00 | 0.00 | 0.00 | 54 | 1021.4 |
| 20260904083535 | 81 | 152 | 0.0 | 0.0 | 0.00 | 0.00 | 0.00 | 56 | 1021.4 |
| 20260904083041 | 80 | 152 | 0.0 | 1.0 | 0.00 | 0.00 | 0.00 | 56 | 1021.4 |
| 20260904082544 | 80 | 152 | 0.0 | 0.0 | 0.00 | 0.00 | 0.00 | 56 | 1021.4 |
| 20260904082035 | 79 | 152 | 0.0 | 0.0 | 0.00 | 0.00 | 0.00 | 59 | 1021.3 |
| 20260904081536 | 79 | 160 | 0.0 | 0.0 | 0.00 | 0.00 | 0.00 | 58 | 1021.3 |
| 20260904081041 | 79 | 160 | 0.0 | 0.0 | 0.00 | 0.00 | 0.00 | 59 | 1021.4 |
| 20260904080603 | 78 | 166 | 0.0 | 0.0 | 0.00 | 0.00 | 0.00 | 61 | 1021.3 |
| 20260904080057 | 78 | 146 | 0.0 | 0.0 | 0.00 | 0.00 | 0.00 | 63 | 1021.2 |
| 20260904075539 | 78 | 141 | 0.0 | 0.0 | 0.00 | 0.00 | 0.00 | 63 | 1021.3 |
| 20260904075047 | 78 | 141 | 0.0 | 4.0 | 0.00 | 0.00 | 0.00 | 65 | 1021.3 |
| 20260904074549 | 78 | 143 | 1.0 | 4.0 | 0.00 | 0.00 | 0.00 | 67 | 1021.2 |
| 20260904074038 | 78 | 127 | 0.0 | 0.0 | 0.00 | 0.00 | 0.00 | 64 | 1021.2 |
| 20260904073538 | 78 | 125 | 0.0 | 0.0 | 0.00 | 0.00 | 0.00 | 63 | 1021.3 |
| 20260904073045 | 78 | 159 | 0.0 | 0.0 | 0.00 | 0.00 | 0.00 | 63 | 1021.2 |
| 20260904072547 | 78 | 135 | 0.0 | 2.0 | 0.00 | 0.00 | 0.00 | 64 | 1021.2 |
| 20260904072035 | 78 | 137 | 0.0 | 4.0 | 0.00 | 0.00 | 0.00 | 66 | 1021.2 |
| 20260904071537 | 78 | 318 | 0.0 | 0.0 | 0.00 | 0.00 | 0.00 | 65 | 1021.2 |
| 20260904071050 | 77 | 318 | 0.0 | 0.0 | 0.00 | 0.00 | 0.00 | 64 | 1021.2 |
| 20260904070552 | 77 | 318 | 0.0 | 0.0 | 0.00 | 0.00 | 0.00 | 65 | 1021.2 |
| 20260904070038 | 76 | 318 | 0.0 | 0.0 | 0.00 | 0.00 | 0.00 | 67 | 1021.1 |
| 20260904065541 | 76 | 318 | 0.0 | 0.0 | 0.00 | 0.00 | 0.00 | 68 | 1021.1 |
| 20260904065058 | 77 | 318 | 0.0 | 0.0 | 0.00 | 0.00 | 0.00 | 67 | 1021.1 |
| 20260904064533 | 77 | 318 | 0.0 | 0.0 | 0.00 | 0.00 | 0.00 | 67 | 1021.1 |
| 20260904064107 | 76 | 318 | 0.0 | 0.0 | 0.00 | 0.00 | 0.00 | 67 | 1021.1 |
| 20260904063608 | 75 | 318 | 0.0 | 0.0 | 0.00 | 0.00 | 0.00 | 63 | 1021.1 |
| 20260904063050 | 75 | 318 | 0.0 | 0.0 | 0.00 | 0.00 | 0.00 | 65 | 1021.1 |
| 20260904062532 | 74 | 318 | 0.0 | 0.0 | 0.00 | 0.00 | 0.00 | 67 | 1021.1 |
| 20260904062038 | 74 | 318 | 0.0 | 0.0 | 0.00 | 0.00 | 0.00 | 67 | 1021.0 |
| 20260904061559 | 73 | 318 | 0.0 | 0.0 | 0.00 | 0.00 | 0.00 | 69 | 1021.0 |
| 20260904061046 | 73 | 318 | 0.0 | 0.0 | 0.00 | 0.00 | 0.00 | 71 | 1020.9 |
| 20260904060609 | 73 | 318 | 0.0 | 0.0 | 0.00 | 0.00 | 0.00 | 72 | 1020.8 |
| 20260904060037 | 73 | 318 | 0.0 | 0.0 | 0.00 | 0.00 | 0.00 | 71 | 1020.8 |
| 20260904055539 | 72 | 318 | 0.0 | 0.0 | 0.00 | 0.00 | 0.00 | 71 | 1020.7 |
| 20260904055043 | 72 | 318 | 0.0 | 0.0 | 0.00 | 0.00 | 0.00 | 71 | 1020.6 |
| 20260904054605 | 72 | 318 | 0.0 | 0.0 | 0.00 | 0.00 | 0.00 | 71 | 1020.6 |
| 20260904054033 | 72 | 318 | 0.0 | 0.0 | 0.00 | 0.00 | 0.00 | 71 | 1020.5 |
| 20260904053556 | 71 | 318 | 0.0 | 0.0 | 0.00 | 0.00 | 0.00 | 71 | 1020.4 |
| 20260904053047 | 71 | 318 | 0.0 | 0.0 | 0.00 | 0.00 | 0.00 | 70 | 1020.4 |
| 20260904052607 | 71 | 318 | 0.0 | 0.0 | 0.00 | 0.00 | 0.00 | 71 | 1020.4 |
| 20260904052035 | 71 | 318 | 0.0 | 0.0 | 0.00 | 0.00 | 0.00 | 70 | 1020.3 |
| 20260904051551 | 71 | 318 | 0.0 | 0.0 | 0.00 | 0.00 | 0.00 | 71 | 1020.4 |
| 20260904051038 | 71 | 318 | 0.0 | 0.0 | 0.00 | 0.00 | 0.00 | 70 | 1020.3 |
| 20260904050602 | 70 | 318 | 0.0 | 0.0 | 0.00 | 0.00 | 0.00 | 71 | 1020.3 |
| 20260904050031 | 71 | 318 | 0.0 | 0.0 | 0.00 | 0.00 | 0.00 | 71 | 1020.2 |
| 20260904045534 | 71 | 318 | 0.0 | 0.0 | 0.00 | 0.00 | 0.00 | 71 | 1020.2 |
| 20260904045044 | 70 | 318 | 0.0 | 0.0 | 0.00 | 0.00 | 0.00 | 72 | 1020.3 |
| 20260904044548 | 70 | 318 | 0.0 | 0.0 | 0.00 | 0.00 | 0.00 | 73 | 1020.3 |
| 20260904044037 | 70 | 318 | 0.0 | 0.0 | 0.00 | 0.00 | 0.00 | 73 | 1020.2 |
| 20260904043538 | 70 | 318 | 0.0 | 0.0 | 0.00 | 0.00 | 0.00 | 73 | 1020.2 |
| 20260904043040 | 70 | 318 | 0.0 | 0.0 | 0.00 | 0.00 | 0.00 | 73 | 1020.2 |
| 20260904042542 | 70 | 318 | 0.0 | 0.0 | 0.00 | 0.00 | 0.00 | 73 | 1020.3 |
| 20260904042032 | 70 | 318 | 0.0 | 0.0 | 0.00 | 0.00 | 0.00 | 73 | 1020.2 |
| 20260904041536 | 70 | 318 | 0.0 | 0.0 | 0.00 | 0.00 | 0.00 | 73 | 1020.2 |
| 20260904041043 | 70 | 318 | 0.0 | 0.0 | 0.00 | 0.00 | 0.00 | 73 | 1020.2 |
| 20260904040606 | 70 | 318 | 0.0 | 0.0 | 0.00 | 0.00 | 0.00 | 73 | 1020.2 |
| 20260904040035 | 71 | 318 | 0.0 | 0.0 | 0.00 | 0.00 | 0.00 | 73 | 1020.2 |
| 20260904035540 | 71 | 318 | 0.0 | 0.0 | 0.00 | 0.00 | 0.00 | 73 | 1020.2 |
| 20260904035043 | 71 | 318 | 0.0 | 0.0 | 0.00 | 0.00 | 0.00 | 73 | 1020.3 |
| 20260904034543 | 71 | 318 | 0.0 | 0.0 | 0.00 | 0.00 | 0.00 | 72 | 1020.4 |
| 20260904034032 | 71 | 318 | 0.0 | 0.0 | 0.00 | 0.00 | 0.00 | 71 | 1020.4 |
| 20260904033537 | 71 | 318 | 0.0 | 0.0 | 0.00 | 0.00 | 0.00 | 71 | 1020.4 |
| 20260904033044 | 71 | 318 | 0.0 | 0.0 | 0.00 | 0.00 | 0.00 | 71 | 1020.4 |
| 20260904032549 | 71 | 318 | 0.0 | 0.0 | 0.00 | 0.00 | 0.00 | 72 | 1020.4 |
| 20260904032039 | 70 | 318 | 0.0 | 0.0 | 0.00 | 0.00 | 0.00 | 72 | 1020.5 |
| 20260904031540 | 70 | 318 | 0.0 | 0.0 | 0.00 | 0.00 | 0.00 | 73 | 1020.4 |
| 20260904031112 | 70 | 318 | 0.0 | 0.0 | 0.00 | 0.00 | 0.00 | 73 | 1020.4 |
| 20260904030612 | 71 | 318 | 0.0 | 0.0 | 0.00 | 0.00 | 0.00 | 72 | 1020.3 |
| 20260904030046 | 71 | 318 | 0.0 | 0.0 | 0.00 | 0.00 | 0.00 | 72 | 1020.4 |
| 20260904025549 | 71 | 318 | 0.0 | 0.0 | 0.00 | 0.00 | 0.00 | 71 | 1020.4 |
| 20260904025040 | 71 | 318 | 0.0 | 0.0 | 0.00 | 0.00 | 0.00 | 71 | 1020.4 |
| 20260904024544 | 71 | 318 | 0.0 | 0.0 | 0.00 | 0.00 | 0.00 | 71 | 1020.5 |
| 20260904024041 | 71 | 318 | 0.0 | 0.0 | 0.00 | 0.00 | 0.00 | 71 | 1020.4 |
| 20260904023539 | 71 | 318 | 0.0 | 2.0 | 0.00 | 0.00 | 0.00 | 72 | 1020.5 |
| 20260904023057 | 71 | 318 | 0.0 | 2.0 | 0.00 | 0.00 | 0.00 | 73 | 1020.5 |
| 20260904022532 | 71 | 318 | 0.0 | 0.0 | 0.00 | 0.00 | 0.00 | 74 | 1020.5 |
| 20260904022110 | 71 | 318 | 0.0 | 0.0 | 0.00 | 0.00 | 0.00 | 73 | 1020.5 |
| 20260904021552 | 71 | 318 | 0.0 | 0.0 | 0.00 | 0.00 | 0.00 | 72 | 1020.5 |
| 20260904021041 | 71 | 318 | 0.0 | 0.0 | 0.00 | 0.00 | 0.00 | 72 | 1020.4 |
| 20260904020601 | 71 | 318 | 0.0 | 0.0 | 0.00 | 0.00 | 0.00 | 73 | 1020.5 |
| 20260904020051 | 72 | 318 | 0.0 | 0.0 | 0.00 | 0.00 | 0.00 | 72 | 1020.4 |
| 20260904015532 | 72 | 318 | 0.0 | 0.0 | 0.00 | 0.00 | 0.00 | 72 | 1020.4 |
| 20260904015043 | 72 | 318 | 0.0 | 0.0 | 0.00 | 0.00 | 0.00 | 72 | 1020.4 |
| 20260904014545 | 72 | 318 | 0.0 | 3.0 | 0.00 | 0.00 | 0.00 | 71 | 1020.4 |
| 20260904014056 | 72 | 318 | 0.0 | 3.0 | 0.00 | 0.00 | 0.00 | 72 | 1020.4 |
| 20260904013533 | 72 | 318 | 0.0 | 0.0 | 0.00 | 0.00 | 0.00 | 72 | 1020.5 |
| 20260904013041 | 72 | 318 | 0.0 | 0.0 | 0.00 | 0.00 | 0.00 | 71 | 1020.5 |
| 20260904012543 | 72 | 318 | 0.0 | 0.0 | 0.00 | 0.00 | 0.00 | 71 | 1020.5 |
| 20260904012033 | 72 | 318 | 0.0 | 0.0 | 0.00 | 0.00 | 0.00 | 71 | 1020.5 |
| 20260904011533 | 72 | 318 | 0.0 | 0.0 | 0.00 | 0.00 | 0.00 | 71 | 1020.4 |
| 20260904011043 | 73 | 318 | 0.0 | 0.0 | 0.00 | 0.00 | 0.00 | 70 | 1020.5 |
| 20260904010545 | 73 | 318 | 0.0 | 0.0 | 0.00 | 0.00 | 0.00 | 71 | 1020.4 |
| 20260904010054 | 72 | 318 | 0.0 | 0.0 | 0.00 | 0.00 | 0.00 | 71 | 1020.4 |
| 20260904005532 | 72 | 318 | 0.0 | 0.0 | 0.00 | 0.00 | 0.00 | 71 | 1020.4 |
| 20260904005111 | 72 | 318 | 0.0 | 0.0 | 0.00 | 0.00 | 0.00 | 71 | 1020.4 |
| 20260904004612 | 73 | 318 | 0.0 | 0.0 | 0.00 | 0.00 | 0.00 | 70 | 1020.4 |
| 20260904004040 | 73 | 318 | 0.0 | 0.0 | 0.00 | 0.00 | 0.00 | 71 | 1020.4 |
| 20260904003601 | 73 | 318 | 0.0 | 0.0 | 0.00 | 0.00 | 0.00 | 71 | 1020.4 |
| 20260904003057 | 73 | 318 | 0.0 | 0.0 | 0.00 | 0.00 | 0.00 | 70 | 1020.4 |
| 20260904002531 | 73 | 318 | 0.0 | 0.0 | 0.00 | 0.00 | 0.00 | 69 | 1020.4 |
| 20260904002041 | 73 | 318 | 0.0 | 0.0 | 0.00 | 0.00 | 0.00 | 69 | 1020.4 |
| 20260904001547 | 73 | 318 | 0.0 | 0.0 | 0.00 | 0.00 | 0.00 | 69 | 1020.3 |
| 20260904001035 | 73 | 318 | 0.0 | 0.0 | 0.00 | 0.00 | 0.00 | 70 | 1020.4 |
| 20260904000539 | 73 | 318 | 0.0 | 0.0 | 0.00 | 0.00 | 0.00 | 70 | 1020.4 |
| 20260904000044 | 74 | 318 | 0.0 | 0.0 | 0.00 | 0.00 | 0.00 | 70 | 1020.4 |
| 20260903235550 | 74 | 318 | 0.0 | 0.0 | 0.00 | 0.00 | 0.00 | 69 | 1020.4 |
| 20260903235040 | 74 | 318 | 0.0 | 0.0 | 0.00 | 0.00 | 0.00 | 69 | 1020.4 |
| 20260903234604 | 73 | 318 | 0.0 | 0.0 | 0.00 | 0.00 | 0.00 | 69 | 1020.5 |
| 20260903234036 | 73 | 318 | 0.0 | 0.0 | 0.00 | 0.00 | 0.00 | 70 | 1020.5 |
| 20260903233537 | 74 | 318 | 0.0 | 0.0 | 0.00 | 0.00 | 0.00 | 69 | 1020.5 |
| 20260903233044 | 74 | 318 | 0.0 | 0.0 | 0.00 | 0.00 | 0.00 | 69 | 1020.5 |
| 20260903232546 | 75 | 318 | 0.0 | 0.0 | 0.00 | 0.00 | 0.00 | 67 | 1020.5 |
| 20260903232035 | 75 | 318 | 0.0 | 0.0 | 0.00 | 0.00 | 0.00 | 67 | 1020.5 |
| 20260903231538 | 75 | 318 | 0.0 | 0.0 | 0.00 | 0.00 | 0.00 | 67 | 1020.4 |
| 20260903231041 | 76 | 318 | 0.0 | 0.0 | 0.00 | 0.00 | 0.00 | 66 | 1020.5 |
| 20260903230602 | 76 | 318 | 0.0 | 0.0 | 0.00 | 0.00 | 0.00 | 66 | 1020.5 |
| 20260903230100 | 75 | 318 | 0.0 | 0.0 | 0.00 | 0.00 | 0.00 | 66 | 1020.4 |
| 20260903225532 | 75 | 318 | 0.0 | 0.0 | 0.00 | 0.00 | 0.00 | 67 | 1020.3 |
| 20260903225042 | 75 | 318 | 0.0 | 0.0 | 0.00 | 0.00 | 0.00 | 67 | 1020.3 |
| 20260903224545 | 75 | 318 | 0.0 | 0.0 | 0.00 | 0.00 | 0.00 | 68 | 1020.3 |
| 20260903224056 | 75 | 318 | 0.0 | 0.0 | 0.00 | 0.00 | 0.00 | 67 | 1020.4 |
| 20260903223539 | 74 | 318 | 0.0 | 0.0 | 0.00 | 0.00 | 0.00 | 68 | 1020.4 |
| 20260903223108 | 74 | 318 | 0.0 | 0.0 | 0.00 | 0.00 | 0.00 | 68 | 1020.4 |
| 20260903222612 | 74 | 318 | 0.0 | 0.0 | 0.00 | 0.00 | 0.00 | 69 | 1020.4 |
| 20260903222039 | 74 | 318 | 0.0 | 0.0 | 0.00 | 0.00 | 0.00 | 68 | 1020.4 |
| 20260903221542 | 74 | 318 | 0.0 | 0.0 | 0.00 | 0.00 | 0.00 | 68 | 1020.4 |
| 20260903221033 | 75 | 318 | 0.0 | 0.0 | 0.00 | 0.00 | 0.00 | 68 | 1020.4 |
| 20260903220537 | 74 | 318 | 0.0 | 0.0 | 0.00 | 0.00 | 0.00 | 68 | 1020.3 |
| 20260903220045 | 75 | 318 | 0.0 | 0.0 | 0.00 | 0.00 | 0.00 | 68 | 1020.4 |
| 20260903215034 | 75 | 318 | 0.0 | 0.0 | 0.00 | 0.00 | 0.00 | 68 | 1020.4 |
| 20260903214531 | 76 | 318 | 0.0 | 0.0 | 0.00 | 0.00 | 0.00 | 67 | 1020.3 |
| 20260903214041 | 75 | 318 | 0.0 | 0.0 | 0.00 | 0.00 | 0.00 | 67 | 1020.4 |
| 20260903213544 | 75 | 318 | 0.0 | 0.0 | 0.00 | 0.00 | 0.00 | 68 | 1020.4 |
| 20260903213032 | 75 | 318 | 0.0 | 0.0 | 0.00 | 0.00 | 0.00 | 69 | 1020.4 |
| 20260903212556 | 75 | 318 | 0.0 | 0.0 | 0.00 | 0.00 | 0.00 | 68 | 1020.3 |
| 20260903212108 | 75 | 318 | 0.0 | 0.0 | 0.00 | 0.00 | 0.00 | 69 | 1020.3 |
| 20260903211550 | 76 | 318 | 0.0 | 0.0 | 0.00 | 0.00 | 0.00 | 68 | 1020.4 |
| 20260903211037 | 76 | 318 | 0.0 | 0.0 | 0.00 | 0.00 | 0.00 | 67 | 1020.3 |
| 20260903210542 | 77 | 318 | 0.0 | 0.0 | 0.00 | 0.00 | 0.00 | 65 | 1020.3 |
| 20260903210033 | 77 | 318 | 0.0 | 0.0 | 0.00 | 0.00 | 0.00 | 64 | 1020.3 |
| 20260903205535 | 77 | 318 | 0.0 | 0.0 | 0.00 | 0.00 | 0.00 | 65 | 1020.3 |
| 20260903205053 | 77 | 318 | 0.0 | 0.0 | 0.00 | 0.00 | 0.00 | 64 | 1020.2 |
| 20260903204536 | 77 | 318 | 0.0 | 0.0 | 0.00 | 0.00 | 0.00 | 64 | 1020.2 |
| 20260903204046 | 77 | 318 | 0.0 | 0.0 | 0.00 | 0.00 | 0.00 | 64 | 1020.2 |
| 20260903203550 | 77 | 318 | 0.0 | 0.0 | 0.00 | 0.00 | 0.00 | 64 | 1020.2 |
| 20260903203059 | 77 | 321 | 0.0 | 0.0 | 0.00 | 0.00 | 0.00 | 65 | 1020.2 |
| 20260903202536 | 77 | 323 | 0.0 | 0.0 | 0.00 | 0.00 | 0.00 | 65 | 1020.1 |
| 20260903202043 | 78 | 324 | 0.0 | 0.0 | 0.00 | 0.00 | 0.00 | 64 | 1020.1 |
| 20260903201542 | 78 | 324 | 0.0 | 0.0 | 0.00 | 0.00 | 0.00 | 62 | 1020.2 |
| 20260903201034 | 78 | 324 | 0.0 | 0.0 | 0.00 | 0.00 | 0.00 | 63 | 1020.2 |
| 20260903200536 | 78 | 324 | 0.0 | 0.0 | 0.00 | 0.00 | 0.00 | 64 | 1020.1 |
| 20260903200045 | 78 | 324 | 0.0 | 0.0 | 0.00 | 0.00 | 0.00 | 64 | 1020.1 |
| 20260903195546 | 78 | 324 | 0.0 | 0.0 | 0.00 | 0.00 | 0.00 | 64 | 1020.1 |
| 20260903195042 | 78 | 339 | 0.0 | 0.0 | 0.00 | 0.00 | 0.00 | 65 | 1020.0 |
| 20260903194543 | 78 | 339 | 0.0 | 0.0 | 0.00 | 0.00 | 0.00 | 63 | 1020.0 |
| 20260903194042 | 79 | 339 | 0.0 | 0.0 | 0.00 | 0.00 | 0.00 | 62 | 1020.1 |